CZ-4C R/B, 40112

Orbit data source: Space-Track

CZ-4C R/B, 40112 is space debris in LEO originally from a launch on Sat, 09 Aug 2014 UTC launched from the Jiuquan Satellite Launch Center, China (JSC). Debris objects in space refer to the collection of defunct objects orbiting the Earth. Examples of debris include non-operational satellites, rocket bodies, and fragments generated from explosions, collisions, or faulty payload assembly.

Loading next visibility...
Identifier
40112, 2014-047D
Orbit
LEO
Last TLE update
1 day ago
Origin
Manufacturer
SAST
Mission
Spacecraft
Bus & Motor
CZ-4 STAGE 3, Unknown motor
Mass
~1,000 kg wet, ~1,000 kg dry
Launch date (UTC)
2014-08-09 (11 years ago)
Launch vehicle
Unknown
Launch site
Jiuquan Satellite Launch Center, China (JSC)
Object type
Payload
Rocket body
Debris
Shape & HBR
Cyl, 2.9 m
Radar Cross Section
20.385 m², Large (>1 m²)

Expand to show TLE details & history

TLE from 1 day ago
0 CZ-4C R/B
1 40112U 14047D   25181.28602707  .00000166  00000-0  11754-3 0  9997
2 40112  63.4146 131.4470 0526810 359.6963   0.3682 13.70159397544587
Epoch: 2025-06-30T06:51Z
TLE epoch observation values (Epoch: 2025-06-30T06:51:52.738Z)
Latitude
-0.00002°
Longitude
109.87923°
Altitude
612.133 km
Speed
7.75 km/s
True Right ascension
08h 45m 47s
True Declination
0° 00' 00"
Sunlit
Object was in daylight at epoch
Visualization orbit readout
Latitude
61.25684°
Longitude
171.68189°
Altitude
912.233 km
Speed
7.45 km/s
Apparent Right ascension
12h 44m 34s
Apparent Declination
15° 17' 12"
Sunlit
Object is in daylight
Visualization observer readout
Local Sidereal Time
00:38:32
Azimuth
358.226° N
Elevation
-34.779°
Doppler factor
1
Orbital elements
Apogee altitude
1,386.379 km
Perigee altitude
609.235 km
Semi-major axis
7,375.944 km
Eccentricity
0.05268
Inclination
63.4146°
RAAN
131.447°
Arg. of periapsis
359.6963°
True anomaly
Unknown
Mean anomaly
0.3682°
Eccentric anomaly
Unknown
Mean motion
3.42623 °/min
Orbital period
105.07 mins
BSTAR
0.00011754
Loading maneuver chart data...
Loading SW <> Apogee altitude chart data...
Loading historical data...
Loading historical data...
Loading historical data...
Loading historical data...
Loading historical data...
Loading historical data...
Loading historical data...

CZ-4C R/B Visibility forecast

Observer location: undefined°, undefined°

Span
Click to sort rows by Start time (UTC) header in descending order
Start Az.
Max El. time (UTC)
Max El. Az.
Max El.
End time (UTC)
End Az.
7 mins2025-07-01 21:31:39.871Z168.721° S2025-07-01 21:34:39.871Z119.09° SE26.9°2025-07-01 21:38:39.871Z56.635° ENE
7 mins2025-07-01 23:20:39.871Z266.575° W2025-07-01 23:23:39.871Z326.875° NNW28.309°2025-07-01 23:27:39.871Z16.997° NNE
9 mins2025-07-02 04:53:39.871Z0.634° NNE2025-07-02 04:57:39.871Z41.816° NE19.896°2025-07-02 05:02:39.871Z82.239° E
14 mins2025-07-02 06:40:39.871Z330.631° NNW2025-07-02 06:46:39.871Z45.89° ENE43.909°2025-07-02 06:54:39.871Z139.765° SSE
10 mins2025-07-02 08:30:39.871Z291.874° WNW2025-07-02 08:34:39.871Z253.775° W23.881°2025-07-02 08:40:39.871Z202.163° SSW
|